Вернуться в каталог

THORAD AGENA D DEB

АктивенPO
NORAD 4822·DEBRIS·🇺🇸 United States

Запущен Apr 8, 1970 с Vandenberg Space Force Base

Loading…

Ближайшие Пролёты

TLE

Source: Space-Track
1 04822U 70025ED  26229.75363350  .00001955  00000-0  92520-3 0  9994
2 04822  99.4014  46.4481 0048946 285.6333  73.9444 14.20338329799330

Отслеживайте THORAD AGENA D DEB в реальном времени с AllMySat

Download on the App Store